Skip Page Navigation
NASA JPL Caltech
NASA Logo - Jet Propulsion Laboratory + View the NASA Portal
+ Center for Near-Earth Object Studies
JPL Home Earth Solar System Stars & Galaxies Technology
JPL Solar System Dynamics
BODIES ORBITS EPHEMERIDES TOOLS PHYSICAL DATA DISCOVERY FAQ SITE MAP
JPL Small-Body Database Browser
Search: [ help ]  
175P/Hergenrother
Classification: Jupiter-family Comet          SPK-ID: 1000291
Ephemeris | Orbit Diagram | Orbital Elements | Mission Design | Physical Parameters | Close-Approach Data ]

[ show orbit diagram ]
Orbital Elements at Epoch 2455465.5 (2010-Sep-26.0) TDB
Reference: JPL 62 (heliocentric ecliptic J2000)
 Element Value Uncertainty (1-sigma)   Units 
e .4221748462030159 3.4798e-07  
a 3.488839010140829 2.834e-07 au
q 2.015938937607542 1.3636e-06 au
i 6.093929260970516 1.4618e-05 deg
node 126.4354790912761 8.9003e-05 deg
peri 51.13961201642894 0.00012112 deg
M 212.8076621221998 2.5492e-05 deg
tp 2456438.700949541505
(2013-May-26.20094954)
0.00020319 TDB
period 2380.234914984541
6.52
0.00029002
7.94e-07
d
yr
n .1512455756924052 1.8429e-08 deg/d
Q 4.961739082674115 4.0305e-07 au

Additional Model Parameters
 Parameter Value Uncertainty (1-sigma) 
A1 [EST] 6.805366064386453E-9 6.505E-10
A2 [EST] 8.623239592650262E-11 1.815E-11
  Orbit Determination Parameters
   # obs. used (total)      846  
   data-arc span      6947 days (19.02 yr)  
   first obs. used      2000-01-04  
   last obs. used      2019-01-11  
   planetary ephem.      DE441  
   SB-pert. ephem.      SB441-N16  
   condition code      0  
   norm. resid. RMS      .62987  
   source      ORB  
   producer      Otto Matic  
   solution date      2021-Apr-15 23:27:46  

Additional Information
 Earth MOID = 1.02867 au 
 Jupiter MOID = .247428 au 
 T_jup = 2.968 
[ show covariance matrix ]

Ephemeris | Orbit Diagram | Orbital Elements | Mission Design | Physical Parameters | Close-Approach Data ]

Physical Parameter Table
Parameter Symbol Value Units Sigma Reference Notes
comet total magnitude M1 9.7   0.8 62 2 parameter fit from 306 observations, autocmod 2.9c
comet total magnitude slope K1 21.5   n/a 62 autocmod 2.9c
comet nuclear magnitude M2 15.6   0.5 62 from 453 observations, autocmod 2.9c
comet nuclear magnitude slope K2 5.   n/a 62 autocmod 2.9c
comet nuclear phase coefficient PC 0.03   n/a 62 autocmod 2.9c

[ show close-approach data ]
Alternate Designations
 Perihelion 
Year
(est.)
 New-Style 
Desig
Roman
 Numeral 
Year/
 Letter 
 2006.9   175P/2006 A3       
 2000.4   175P/2000 C1       
Ephemeris | Orbit Diagram | Orbital Elements | Mission Design | Physical Parameters | Close-Approach Data ]
ABOUT SSD CREDITS/AWARDS PRIVACY/COPYRIGHT GLOSSARY LINKS
FirstGov 2021-Apr-19 17:08 UT
(server date/time)  
NASA Home Page
Site Manager:   Ryan S. Park
Webmaster  Alan B. Chamberlin